STARLINK-32385, 61068

Orbit data source: Space-Track

STARLINK-32385, 61068 is a payload satellite owned by SpaceX/Seattle (US) in LEO that was launched on Fri, 13 Sep 2024 UTC via an FALCON 9 launch vehicle from the Air Force Western Test Range (AFWTR). Payload-class satellites include a variety of spacecraft equipped with specific instruments for various scientific and technological missions. These include communications satellites like Starlink; space stations such as the ISS; scientific satellites like the Hubble; Earth observation satellites from companies like Planet Labs, Umbra, and HawkEye 360; GPS; miniature CubeSats for education and research; and military/defense satellites.

Loading next visibility...
Identifier
61068, 2024-164U
Orbit
LEO
Country
Flag of USUS
Related business
Manufacturer
SpaceX/Seattle
Mission
Operational Commercial Communications
Bus & Motor
STARLINK V2M, Unknown motor
Mass
730 kg wet, ~700 kg dry
Launch date (UTC)
2024-09-13 (2 years ago)
Launch vehicle
FALCON 9
Launch site
Air Force Western Test Range (AFWTR)
Object type
Payload
Rocket body
Debris
Shape & HBR
Box + 2 Pan, 17.7 m
Radar Cross Section
33.884 m², Large (>1 m²)

Expand to show TLE details & history
Last TLE update: 16 hours ago

TLE from 16 hours ago
0 STARLINK-32385
1 61068U 24164U   26171.18279311 -.00000179  00000-0  59900-5 0  9993
2 61068  53.1622 334.7736 0001304  96.8480 263.2670 15.31704855 99179
Epoch: 2026-06-20T04:23Z
TLE epoch observation values (Epoch: 2026-06-20T04:23:13.324Z)
Latitude
-0.00002°
Longitude
0.56699°
Altitude
471.731 km
Speed
7.631 km/s
True Right ascension
22h 19m 05s
True Declination
0° 00' 00"
Sunlit
Object was in full shadow at epoch
Visualization orbit readout
Latitude
Unknown
Longitude
Unknown
Altitude
Unknown
Speed
Unknown
Apparent Right ascension
Unknown
Apparent Declination
Unknown
Sunlit
N/A
Visualization observer readout
Local Sidereal Time
07:16:54
Azimuth
Unknown
Elevation
Unknown
Doppler factor
Unknown
Orbital elements
Apogee altitude
471.875 km
Perigee altitude
470.089 km
Semi-major axis
6,849.119 km
Eccentricity
0.00013
Inclination
53.1622°
RAAN
334.7736°
Arg. of periapsis
96.848°
True anomaly
263.25216°
Mean anomaly
263.267°
Eccentric anomaly
263.25958°
Mean motion
3.82905 °/min
Orbital period
94.02 mins
BSTAR
0.00000599
Loading maneuver chart data...
Computing Atmospheric mass density...
Loading historical data...
Loading historical data...
Loading historical data...
Loading historical data...
Loading historical data...
Loading historical data...
Loading historical data...

Documentation

Showing up to 5 results
|